TimeCDT,TemperatureF,Dew PointF,Humidity,Sea Level PressureIn,VisibilityMPH,Wind Direction,Wind SpeedMPH,Gust SpeedMPH,PrecipitationIn,Events,Conditions,WindDirDegrees,DateUTC
12:53 AM,44.1,39.9,85,30.29,10.0,NE,5.8,-,N/A,,Scattered Clouds,40,2013-04-25 05:53:00
1:53 AM,42.1,39.0,89,30.28,10.0,Calm,Calm,-,N/A,,Clear,0,2013-04-25 06:53:00
2:53 AM,41.0,37.9,89,30.29,8.0,Calm,Calm,-,N/A,,Clear,0,2013-04-25 07:53:00
3:53 AM,37.9,36.0,93,30.30,9.0,NNE,5.8,-,N/A,,Clear,20,2013-04-25 08:53:00
4:53 AM,37.9,36.0,93,30.32,9.0,NNE,4.6,-,N/A,,Clear,20,2013-04-25 09:53:00
5:53 AM,37.9,35.1,89,30.34,10.0,NNE,4.6,-,N/A,,Clear,20,2013-04-25 10:53:00
6:53 AM,39.0,37.0,93,30.35,8.0,Calm,Calm,-,N/A,,Clear,0,2013-04-25 11:53:00
7:53 AM,45.0,39.9,82,30.38,10.0,NE,5.8,-,N/A,,Clear,50,2013-04-25 12:53:00
8:53 AM,48.9,39.0,69,30.38,10.0,East,5.8,-,N/A,,Clear,80,2013-04-25 13:53:00
9:53 AM,54.0,39.0,57,30.39,10.0,NE,8.1,-,N/A,,Clear,40,2013-04-25 14:53:00
10:53 AM,57.0,39.0,51,30.40,10.0,ENE,6.9,-,N/A,,Clear,60,2013-04-25 15:53:00
11:53 AM,59.0,37.0,44,30.39,10.0,Variable,5.8,-,N/A,,Clear,0,2013-04-25 16:53:00
12:53 PM,62.1,37.0,39,30.38,10.0,NE,5.8,-,N/A,,Clear,40,2013-04-25 17:53:00
1:53 PM,64.0,34.0,33,30.36,10.0,NNE,8.1,-,N/A,,Clear,30,2013-04-25 18:53:00
2:53 PM,66.9,34.0,30,30.35,10.0,NE,15.0,18.4,N/A,,Clear,40,2013-04-25 19:53:00
3:53 PM,66.9,32.0,27,30.32,10.0,ENE,9.2,-,N/A,,Clear,60,2013-04-25 20:53:00
4:53 PM,68.0,32.0,26,30.31,10.0,NE,11.5,-,N/A,,Clear,40,2013-04-25 21:53:00
5:53 PM,66.9,34.0,30,30.31,10.0,NNE,10.4,-,N/A,,Clear,30,2013-04-25 22:53:00
6:53 PM,64.0,37.9,38,30.31,10.0,NE,5.8,-,N/A,,Clear,40,2013-04-25 23:53:00
7:53 PM,57.9,39.9,51,30.32,10.0,NE,3.5,-,N/A,,Clear,40,2013-04-26 00:53:00
8:53 PM,54.0,42.1,64,30.32,10.0,Calm,Calm,-,N/A,,Clear,0,2013-04-26 01:53:00
9:53 PM,51.1,41.0,68,30.34,10.0,Calm,Calm,-,N/A,,Clear,0,2013-04-26 02:53:00
10:53 PM,50.0,42.1,74,30.34,10.0,Calm,Calm,-,N/A,,Clear,0,2013-04-26 03:53:00
11:53 PM,46.9,42.1,83,30.33,10.0,NE,4.6,-,N/A,,Clear,40,2013-04-26 04:53:00